TIMESTAMP,CO2_1_1_1,H2O_1_1_1,TAU_1_1_1,TAU_SSITC_TEST_1_1_1,H_1_1_1,H_SSITC_TEST_1_1_1,LE_1_1_1,LE_SSITC_TEST_1_1_1,FC_1_1_1,FC_SSITC_TEST_1_1_1,WD_0_0_1,WS_0_0_1,WS_MAX_0_0_1,U_SIGMA_0_0_1,V_SIGMA_0_0_1,W_SIGMA_0_0_1,USTAR_0_0_1,MO_LENGTH_0_0_1,ZL_0_0_1,FETCH_MAX_0_0_1,FETCH_70_0_0_1,FETCH_80_0_0_1,FETCH_90_0_0_1,PA_0_0_1,RH_0_0_1,TA_0_0_1,VPD_0_0_1,T_SONIC_0_0_1,T_SONIC_SIGMA_0_0_1
[yyyymmddHHMMSS],[mmolCO2 mol-1],[mmolH2O mol-1],[kg m-1 s-2],[#],[W m-2],[#],[W m-2],[#],[umolCO2 m-2 s-1],[#],[Decimal degrees],[m s-1],[m s-1],[m s-1],[m s-1],[m s-1],[m s-1],[m],[#],[m],[m],[m],[m],[kPa],[%],[deg C],[hPa],[deg C],[deg C]
20190831003000,398.63788741624768,8.4529675201833196,1.45263258065054870E-002,0,-5.4583810432434818,0,6.9513184838655713,1,-3.64128126564340002E-002,1,267.62080091301016,1.8701416523623269,3.4284650136866253,0.34310649744214650,0.22897655197824654,0.16562535188903696,0.11304475107992859,22.177633089900137,0.85671901609070922,358.03279491750249,3653.0000000000000,6894.0000000000000,-9999.,94.568094128472225,44.803103448275863,15.756206896551703,9.8509219539262531,15.978420037163687,0.15778806676167317
20190831010000,399.21553415314099,9.0003813131650556,6.05060665970565993E-003,0,-4.4575137240557350,0,5.9043190591165082,0,0.29513046920838509,0,254.58804256470685,2.0811019677356066,2.8786388942899164,0.21867135924587544,0.20968143038452777,0.10413130232828902,7.29019605659684544E-002,7.2864931567179347,2.6075643785491724,1114.3135205491235,-9999.,-9999.,-9999.,94.607798303602422,48.905000000000001,15.375000000000000,8.8987593977032482,15.760985751681858,0.16716796048249152
20190831013000,399.33525918734523,8.9586962733857547,6.17815745491820476E-003,0,-8.5336621427914086,1,4.8069358692404318,0,0.79639478790770568,1,256.35718578847326,2.2781865351645121,3.5635438015665661,0.28928947498255692,0.18152973043061679,0.11842627855358949,7.36100023367151773E-002,3.9189417412960923,4.8482476276149553,1321.0000596645641,-9999.,-9999.,-9999.,94.640234501778366,49.764666666666663,15.036999999999978,8.5610156087241283,15.429299308570819,0.28426482633258049
20190831020000,399.98379640070965,9.0532880000687452,1.43379688344439284E-002,0,-8.5799309758599911,0,5.5562712090721336,0,0.62764751701859312,0,255.07914955389094,2.3875030341271719,3.6983448475521472,0.29853001387431233,0.23894593067610537,0.14661703799597264,0.11206651208955067,13.755985562161069,1.3812169192924839,599.75127095415178,6141.0000000000000,-9999.,-9999.,94.655624922287444,51.375000000000000,14.708333333333314,8.1129167964576467,15.156606575726641,0.25693412809045740
20190831023000,400.23397775046709,9.1969592381799288,2.24385378072725142E-002,0,-12.727765871738008,0,4.2032043695741024,1,0.87559854544512605,0,246.15009221960582,2.4688636143993490,3.7136301311984052,0.35116289602367384,0.54301188854108251,0.18218014575882713,0.14013640173648761,18.133851412199984,1.0477641824735198,412.53183278965679,4181.0000000000000,7875.0000000000000,-9999.,94.665722539279514,52.947333333333333,14.487000000000023,7.7391567796741993,14.942849388970217,0.37027827335560581
20190831030000,401.95694377118133,9.9037754730880767,2.22695479799398521E-002,0,-12.298170858005365,0,-1.9479567241021876,2,-0.10598901421418554,2,214.07594892811261,2.2962245057899553,3.4290256663960217,0.39261987303152418,0.40836421609845153,0.16376619278848750,0.13941906857267450,18.486941791064055,1.0277524652121715,366.49467817190805,3658.0000000000000,6859.0000000000000,-9999.,94.697867159939236,59.902333333333331,13.730666666666650,6.2796122017801768,14.259761627197349,0.41037424235274728
20190831033000,403.71686007536528,10.312246461885030,2.87559045586649568E-002,0,-9.3612180306094519,0,12.581494227674019,0,1.5096172906813958,0,219.12078344428500,2.4776534763449702,3.6260450079083251,0.38654622934600169,0.35377752001466245,0.21014845973499996,0.15833068063423852,35.579050033991280,0.53402212768041601,298.94420667628373,3078.0000000000000,5823.0000000000000,-9999.,94.717875114583336,63.756333333333330,13.396999999999991,5.5540592051205202,13.980275260077576,0.51606148929204110
20190831040000,406.95080318141379,10.341657333215654,5.13612237709494823E-002,0,-26.573125114247983,0,17.230491826141726,0,2.3682799141805342,0,209.41787460049500,2.7380239521048964,3.9759744563169241,0.47113630928098338,0.36299321960473002,0.26251867595950945,0.21125043550565134,29.776253067542928,0.63809237370804761,105.23611964173865,192.40519004400292,230.25987151145318,288.25803550199851,94.746464733711733,67.692999999999998,12.529333333333341,4.6775938209989931,13.024694196504242,0.57586079106084254
20190831043000,407.10917701757086,10.089438722475796,2.99169701585804103E-002,0,-22.922649137081002,0,3.3770167529388071,0,1.3483906830240344,0,213.35090883971333,2.8030099887643742,3.8611229610032516,0.38006812664841910,0.32964710961315280,0.21361163523369109,0.16108586439289099,15.306954046064639,1.2412658941041788,414.59223985041029,4085.0000000000000,7631.0000000000000,-9999.,94.771900209635419,67.808333333333337,12.132000000000005,4.5407068745225567,12.606539352417030,0.44842911423588305
20190831050000,408.95290435347511,10.253326609207551,3.34626364108037838E-002,0,-13.661820467152827,0,1.9050873431557398,0,0.68748103062694021,0,208.81389541234128,2.7046299157789604,3.8276303049600586,0.38628648012310907,0.36864660727415643,0.22903662957725379,0.17027452930502418,30.337865263247050,0.62628005745076731,315.68213548086896,3254.0000000000000,6159.0000000000000,-9999.,94.788233630208325,70.156333333333336,11.862666666666655,4.1354330937951671,12.404972795274489,0.61541743223185630
20190831053000,408.39919200572092,10.072111386894253,2.68229082004009384E-002,0,-16.848309175151154,1,1.4609427336663805,2,0.78804464880486724,2,203.80501948645997,2.7950838852782929,3.7704225092251442,0.36619134337938608,0.35583499615190789,0.22990578354180741,0.15237905145480038,17.632255775884246,1.0775705752854621,443.93331006897341,4531.0000000000000,8552.0000000000000,-9999.,94.806172269097232,69.778333333333336,11.677333333333308,4.1368657844169983,12.224418681674535,0.62785199048451923
20190831073000,409.78722910262894,9.4878085069911808,5.40021009110131095E-002,0,-36.647602846895367,0,16.307583983149602,0,3.5685107019911366,1,198.34622402420860,2.8114883040108727,4.3402406965054681,0.46106692017820772,0.41032003633620678,0.26771380960080859,0.21598351884568751,23.087726973278002,0.82294805469550192,105.45198773928769,192.79986577392108,230.73219755857727,288.84933166475020,94.843689102057510,67.625333333333330,11.254000000000019,4.3091014112958543,11.711907171959240,0.61436433387337208
20190831080000,409.75891226443116,9.2068734015174076,6.44122978415597042E-002,0,-58.340761019479629,0,21.563701066885770,0,6.0642440463728722,0,195.67367037768429,3.0113757292535936,5.2867141402240110,0.53749614149007274,0.48230608005239622,0.33668041958509365,0.23578400111939740,18.869856988085125,1.0068968732511885,232.69287484853146,2175.0000000000000,4003.0000000000000,-9999.,94.860383351128476,66.345333333333329,11.091666666666697,4.4314763831548030,11.499571666293718,0.55053475479661773
20190831083000,410.65315531432191,9.0459925699028947,8.07591393140933145E-002,0,-41.669803468621438,0,14.860286359387626,0,3.5602504678788041,1,204.96215488508136,3.1704791129255447,5.3020671111436180,0.60592294786959844,0.47124091951783659,0.32944653015688513,0.26399908999647209,37.088790784321318,0.51228415912745096,104.88391586839931,191.76124921670646,229.48923880596143,287.29329480132640,94.881924623480899,64.978999999999999,11.143000000000029,4.6271301032091889,11.471586921691937,0.46428677907149285
20190831090000,413.58267965519661,8.9828377380793185,5.82755142462572442E-002,0,-34.969138139378011,0,12.843459792251949,0,3.9718990436311521,0,209.46607308800864,3.1832868132481567,5.0001397457368375,0.51899653782280630,0.44149218878680691,0.29749939818160853,0.22403322511058157,27.012400256266830,0.70338066294542012,99.796651903100482,182.46010818851607,218.35814853978292,273.35849065129264,94.901109417329465,66.754666666666665,10.635333333333335,4.2466882809881854,10.959526015798701,0.38788778469569468
20190831093000,414.23075539299003,8.9814230960008281,6.68367357587171806E-002,0,-42.938418813142135,0,10.516666188487148,0,3.1444005201872400,0,211.43442736355030,3.2692011582098894,5.2517539363456072,0.50428836024935131,0.40023512195196298,0.30418744115996649,0.23990901530772396,27.018453604731860,0.70322307405011686,103.55692133121536,189.33507997953359,226.58573388133487,283.65845117812216,94.918256480034714,66.704333333333338,10.646999999999991,4.2564256734973451,10.968800481160542,0.37604382645221962
20190831100000,416.04401770097371,9.1937819455215788,5.32614524523559452E-002,0,-28.552645563056856,0,3.9853122524966440,1,1.8878101017075448,0,213.15375235456813,3.1872279600839244,5.0136209990550045,0.50287998859293825,0.39558318601572823,0.27640740144470144,0.21429324637543354,28.957664344483689,0.65613026568627308,102.14613833058405,186.75571870821912,223.49889721763233,279.79409797253032,94.918119961588545,66.839666666666673,10.967666666666673,4.3305635693928330,11.344775886536638,0.36403479314451165
20190831103000,423.05823033785003,9.9320092521834678,3.74886744738411118E-002,0,-20.548175424393868,0,-0.51495456339566137,2,0.90060275029162518,0,209.16974118182600,3.1928380006954229,4.4649094602436641,0.41801662830717112,0.34086958483903368,0.24147698276826010,0.17967848539086387,23.724228131166534,0.80086904808673998,396.97766121195980,4148.0000000000000,7882.0000000000000,-9999.,94.930893055121530,74.046666666666667,10.591666666666640,3.3055885312947728,11.024713916354756,0.36716169865495046
20190831110000,427.23919609504117,10.351920218841423,2.82619674552950055E-002,0,-20.341127802165769,0,-9.2418165988653342,0,-0.13183826176117619,2,205.91706392659134,2.9721054076186673,4.2075526336451947,0.37652290730490640,0.30033351475487396,0.20534527590079907,0.15591227411930994,15.661965241029346,1.2131300068414193,484.18159975636291,4909.0000000000000,9248.0000000000000,-9999.,94.953811018012161,78.890666666666661,10.266333333333307,2.6308657512407319,10.774189451429606,0.34928527572702778
20190831113000,425.03615556119433,10.078198255085915,4.50868164557931064E-002,0,-26.622439760698722,0,-7.0864128728607652,0,0.86034709680271026,0,207.61985330713190,2.9999026361340428,4.5891856807441931,0.44097131200176293,0.36877593851924073,0.24587741108009561,0.19687583805799527,24.096855473044108,0.78848462286933274,307.79606567984285,3099.0000000000000,5826.0000000000000,-9999.,94.975605279202114,77.084666666666664,10.215333333333319,2.8462276080074878,10.731593813738982,0.45012490120009585
20190831120000,421.92785302803901,9.9437245731711634,4.63941420981789643E-002,0,-30.830449299645210,0,8.2512714133460197,1,3.7162976329873758,1,205.87572651432191,2.7533906937694654,4.2881792710435978,0.42928345756556879,0.36000870496108117,0.25863970385285340,0.19987802091445978,21.773660776836682,0.87261394373391887,262.91786866923212,2554.0000000000000,4751.0000000000000,-9999.,94.972945834852439,73.635000000000005,10.699666666666644,3.3822753404213599,11.162190200805696,0.33809311387141605
20190831123000,416.49676389342574,9.6854348855410741,5.65595202027387653E-002,0,-22.551394711833947,0,18.071442906199181,0,2.4971564826655022,0,208.42003821257504,2.6940112734156858,4.3102845254203661,0.49351147559414849,0.38692707194441300,0.28155073546106751,0.22085233516057542,40.153051788914134,0.47318943775142180,103.10771522229849,188.51378794549322,225.60285707750094,282.42800605212648,94.968445284937715,69.709666666666664,11.127000000000010,3.9978452551892363,11.504607607832327,0.26625472719036142
20190831130000,415.25477808282380,9.8684878978431811,5.31756173889163866E-002,0,-16.019337579379698,0,20.116707861460291,0,-1.2308033801398959,0,203.28411460546039,2.1666963782465865,3.8407487336373762,0.45663969606343380,0.37661212680492706,0.28184542273926166,0.21419156716725066,51.568635393257964,0.36844100789380291,100.52822297487650,183.79765343034890,219.95884858043541,275.36237715621280,94.975389416449659,70.431666666666672,11.254999999999995,3.9358365555193862,11.628770243326869,0.16595894813392598
20190831133000,410.33587610418715,9.8531221543889238,8.75285107893535030E-002,0,-28.016999881971039,1,78.831445579591531,1,3.1976572663808716,2,189.27576268603440,2.0857970482712442,4.0810271612746289,0.58161189791386048,0.46235853782573855,0.33498312536003838,0.27497110517092499,62.384065801327097,0.30456495189827487,106.92178563361352,195.48712509274412,233.94816062760174,292.87533580710834,94.978219652560753,68.671999999999997,11.613999999999976,4.2703880880608196,11.984399731106237,0.23366117602514008
20190831140000,406.18797238534853,9.6287325286370429,0.10627365801839306,0,-14.100571184894928,0,44.985644845714866,0,-6.4085632983760084,0,197.97625310254264,2.1722454469343169,4.5274261002912448,0.62224188347492870,0.50408160200318997,0.36313452863336737,0.30316513467517769,166.13135205917624,0.11436733503036906,108.37878212662058,198.15097936715890,237.13611383620128,296.86627492798544,94.987292267105119,65.430000000000007,11.999000000000024,4.8336318442744721,12.326012898747194,0.13430766137174413
20190831143000,405.45563166332988,10.151856157940683,6.44070949012642002E-002,0,-1.0663215793703962,1,33.089547388274198,0,-4.8526646050325661,0,198.64879257665160,1.9909378629851091,3.6875952937994469,0.48295926707121750,0.48264129840189024,0.33920657064127846,0.23616200121671913,1038.6495489333320,1.82929844041356780E-002,93.724150146444345,171.35763825224748,205.07132763645743,256.72496755185415,94.998184427517373,67.466999999999999,12.338666666666654,4.6516813198547586,12.734377041286962,0.30897233546465103
20190831150000,399.16793098766624,10.573862060063265,0.12677054675597518,1,29.730998723879395,1,80.192842717827745,0,-11.401562074506689,0,196.65888921074065,2.1211173826089782,4.5941932412728734,0.63042336942233901,0.56834906172039923,0.44624468165306364,0.33187185791455215,-103.38587479578275,-0.18377752316291310,98.803606768324258,180.64450496664364,216.18533519473485,270.63838617870357,94.996275021918407,66.272666666666666,13.232666666666660,5.1133350989059068,13.672098192003034,0.26301025907174519
20190831153000,395.09730434728823,11.100506413404716,0.16612550857886527,0,31.437471520125584,0,93.419066396615719,0,-12.474035270368615,0,193.52819801526209,1.8957965764271634,4.4022597892237298,0.76852764704091103,0.57218831553500016,0.44323404016994289,0.38038967446644750,-147.25511614231831,-0.12902777504611102,110.79786457573907,202.57383361092323,242.42914075325143,303.49251653470935,95.004779261284725,66.507333333333335,13.926333333333332,5.3123284291295594,14.419688547770249,0.24580840265032794
20190831160000,393.14423882464973,10.912070640769683,0.20764898478583693,0,14.305378837742234,1,124.66205907870835,0,-10.420841220385350,0,191.66188488989624,2.0597566209765636,4.6099727038794640,0.80691913358258749,0.67650156199271971,0.53030974034656497,0.42575127321514633,-453.73036529228290,-4.18750902593010912E-002,105.04030664686137,192.04718143801566,229.83142664676021,287.72167337252012,95.006479673177083,62.637333333333331,14.588000000000022,6.1855949740421039,15.038325420803517,0.18464689296004205
20190831163000,389.01383263563116,11.234815861995298,0.11475737337593042,1,48.909647961104561,0,84.278963921025721,0,-13.458662728018018,0,208.89495248999040,1.4399494224415796,3.8121721111422313,0.59266989793238167,0.48122633038266316,0.40648810027101340,0.31690679256624793,-54.728582693021622,-0.34716776983926295,102.60342757135140,187.59178928526484,224.49946016295112,281.04668404895114,94.992766220920146,61.824333333333335,15.240999999999985,6.5917413910128015,15.751845456441345,0.31136571883929592
20190831170000,391.24451711542360,10.732464327092561,0.16880340980551403,1,82.210319178832449,1,138.86290388063105,0,-13.649854553299807,0,195.27340296574792,1.6221810792464975,4.6293792083057070,0.88495367960674953,0.74913642372050038,0.49685002115900340,0.38499997944618652,-58.364202796889444,-0.32554201187534454,102.10410779912452,186.67887349176061,223.40693312007366,279.67896983524366,94.963618479021406,55.607666666666667,16.177000000000021,8.1385397337730971,16.519928053457420,0.30687989604239113
20190831173000,390.46270257247085,10.952300649750716,0.11733554382358885,1,23.124737450830093,0,80.926141232860871,0,-9.2005319896530828,0,201.59077610801103,1.7012151662051254,4.1306106164495695,0.59735755121328804,0.76358565666734024,0.45930590163402452,0.32102811592906316,-120.30054802023011,-0.15793776763847245,94.017291406024157,171.89359396736893,205.71272974245812,257.52792687702430,94.966013384114589,56.528999999999996,16.237666666666655,8.0005228731542477,16.651011600070547,0.15793091176923910
20190831180000,390.99957231771157,10.603769432470116,0.31145589798557299,1,154.22371044483444,0,248.37991645212452,0,-16.462887689654874,0,186.88636831196135,1.3706554501114963,4.6823537485382607,0.93312651076231701,1.0233291478156676,0.63792161555400551,0.52357144316723470,-78.242713402299017,-0.24283411417888939,106.91085582923736,195.46714192446220,233.92424587894067,292.84539737961200,94.957314993272561,52.637999999999998,16.848999999999990,9.0622457444748861,17.077045271131738,0.40447333184571621
20190831183000,392.91787867977524,9.8236400252927449,0.37120093773085894,0,146.52300324345345,0,238.14489392691291,0,-17.336300957501383,0,147.07811504099141,1.9310709942793201,6.5183610276667574,1.0739202825129708,0.92298842065179842,0.69257821498662231,0.57200038791785590,-107.35868743867421,-0.17697682836196413,107.44764397987926,196.44856186363543,235.09875488798104,294.31574328662145,94.938631898982592,47.389666666666663,17.297666666666657,10.356649717610791,17.412358883660545,0.47525003576781372
20190831190000,392.26695335431532,10.459294883105143,0.20189409912079934,0,139.95843014110238,0,152.09167596403003,0,-10.937851449241798,0,168.72030212444079,1.4512252078834789,6.8922693724538515,1.0945245099390148,0.92274766366712058,0.62304982771931350,0.42223107550127148,-45.203312500996262,-0.42032317874008124,91.722700002925876,167.69834906011221,200.69209306897190,251.24268553224033,94.912606232983265,49.243333333333332,17.678666666666686,10.235013870944780,17.782184441391564,0.40753810845753025
20190831193000,391.97752973378078,10.593690838655885,0.35119184297778960,1,175.29320345590008,0,187.35320041507785,0,-13.708320632246805,0,158.18213062711587,1.7379169968204835,6.6877297562956652,1.1288624944979346,1.1493493514910471,0.69116496840046693,0.55721301496322784,-82.933636013424845,-0.22909884231922961,105.39172841144944,192.68969250390589,230.60034829301486,288.68427203006911,94.882357400173618,49.106999999999999,17.920333333333360,10.419908105584915,18.097675419277664,0.44579126682362802
20190831200000,392.65367968734705,10.641360205449841,0.26163967722685955,0,180.72394947645597,0,182.05625829618012,0,-15.680030378513731,0,162.91385323850560,1.7739333051009736,6.9657767307443201,1.4344293842384994,1.2084951509666797,0.60391695975295623,0.48131869300704105,-51.831514204260472,-0.36657235065762805,104.42856301727892,190.92871897751519,228.49291274083950,286.04601279614553,94.843429770463814,48.325000000000003,18.240666666666698,10.795170269382666,18.325245588284133,0.56442139015268755
20190831203000,391.56052611504958,10.776915868306084,0.17940812494283159,0,109.40245228875436,0,224.44707776090641,0,-10.426282857187163,0,178.67225782457834,1.6356410196150029,6.2202677438282148,1.1079173954114589,1.4573357486812668,0.62787487355863603,0.39879052400519943,-48.692490329618799,-0.39020390765355101,87.086789618540806,159.22242632967357,190.54857834150815,238.54420876670085,94.822279312500001,48.180666666666667,18.486666666666679,10.993611329547148,18.632844017876550,0.38050842354680409
20190831210000,390.14216979632613,10.839896968581154,0.20696524336891081,0,42.117372470644483,0,138.87571037577874,0,-7.1479267141782792,0,168.36385437994872,2.0166548801532977,6.4357130288534847,1.0017524440115528,0.75573950634004827,0.52645609600570897,0.42807139341080891,-156.42507586337706,-0.12146390145653345,106.11533214782523,194.01267091557582,232.18361555838271,290.66633476898124,94.811196665147577,49.641333333333336,18.101666666666688,10.428744960470537,18.375549554612917,0.32627283824974201
20190831213000,389.50552895229544,10.835272805799315,0.55296067458869747,0,157.86980402672245,0,194.94726567944957,0,-13.136676303706652,0,154.03987711608403,2.8185010609019052,8.2290649958690825,1.4001017715392949,1.1435157333307235,0.79226583361321878,0.70058808127095140,-182.89687114771644,-0.10388367980693707,113.48235861140954,207.48194488358851,248.30289639752152,310.84576159613488,94.778199573350690,47.667333333333332,18.736666666666679,11.277602747223797,18.818801058451299,0.40046680413925434
20190831220000,390.10000747861943,10.692162171674783,0.28877277959330211,0,63.399395827010373,0,142.15577183327585,0,-7.9768574234639109,0,185.12748892422664,2.4953553007574709,7.9939337051803685,1.3624309374071655,1.2310587029884243,0.70965445252826997,0.50621025009351739,-171.78052332995003,-0.11060625286084071,95.561311637384733,174.71655539029172,209.09109357128904,261.75723749948492,94.766149493172847,47.343666666666664,18.630999999999972,11.272596855152024,18.779744317327925,0.30024914046564505
20190831223000,390.63040124979165,10.885511339845806,0.34558443386968918,0,32.618855743170002,1,116.23825874059051,0,-3.8103690056763946,0,194.67770202838878,2.3739206676738567,6.8387760078876596,1.1382875707759665,0.94035237627252655,0.69960775981905854,0.55314672161772938,-435.65288569975462,-4.36127031948424018E-002,103.76322939428439,189.71227691740569,227.03714227852564,284.22356092533590,94.770633588107643,50.254666666666665,17.966333333333353,10.214451403524109,18.248469863043965,0.25688451113431082
20190831230000,390.33844540113932,11.099475665447761,0.30117870920713202,0,24.082107235346378,0,110.96819866292627,0,-3.8190364404552812,0,184.92673889601338,2.1660195284777983,6.1245037757754002,1.0432304524550093,0.86553041151233967,0.64262697777386690,0.51652681812388823,-480.45599330029552,-3.95457654081642074E-002,105.13856303477853,192.22682545239587,230.04641465025188,287.99081284148707,94.759824924913190,50.913333333333334,18.067000000000007,10.143204983215727,18.306552270677400,0.14246538735446906
20190831233000,389.42101824860703,11.405573150332568,0.10307399920460633,0,-0.30814742453630328,2,46.415733919686502,0,-3.3675391356915751,1,184.65793825767614,1.4355901835751201,4.5938019221141664,0.70821010158458109,0.43565064385951663,0.34715946952876070,0.30190885054939404,7497.7257476513723,2.53410175825004823E-003,111.97791136716253,204.73133550226621,245.01111948351715,306.72484751625996,94.751970668075316,54.213000000000001,17.500666666666689,9.1297859033785400,17.878775186166195,0.14890043895970700
20190901000000,389.44784169351453,11.580021940100881,0.11526910120888678,0,-13.329513046360152,0,44.323496191045116,0,-2.6172332278778687,0,185.69316546606265,1.5127185198170212,4.1437187175049974,0.73588633717250018,0.51170142798024598,0.37578404378599395,0.31922181807426647,204.88915731745593,9.27330672289375380E-002,109.89508892238186,200.92327179105925,240.45383981424519,301.01967415680991,94.746904037760416,55.465000000000003,17.378666666666675,8.8119764664625908,17.763554166158087,0.24593136787577119
